| time (UTC) | temp C | wind direction | speed KPH | gust KPH | rain 1hr cm | rain 24hr cm | rain mn cm | humidity % | barometer mb |
| 20260507064521 | 7 | 0.0 | 0.0 | 0.00 | 0.00 | 0.00 | 90 | 1016.3 | |
| 20260507063521 | 7 | 0.0 | 0.0 | 0.00 | 0.03 | 0.00 | 90 | 1016.3 | |
| 20260507062520 | 7 | 0.0 | 0.0 | 0.00 | 0.03 | 0.00 | 90 | 1016.4 | |
| 20260507061520 | 7 | 0.0 | 0.0 | 0.00 | 0.05 | 0.00 | 90 | 1016.4 | |
| 20260507060535 | 7 | 0.0 | 0.0 | 0.00 | 0.05 | 0.00 | 90 | 1016.4 | |
| 20260507055541 | 7 | 0.0 | 0.0 | 0.00 | 0.05 | 0.00 | 90 | 1016.5 | |
| 20260507054601 | 7 | 0.0 | 0.0 | 0.00 | 0.05 | 0.00 | 90 | 1016.5 | |
| 20260507053521 | 7 | 0.0 | 0.0 | 0.00 | 0.05 | 0.00 | 89 | 1016.6 | |
| 20260507052521 | 7 | 0.0 | 0.0 | 0.00 | 0.05 | 0.00 | 89 | 1016.5 | |
| 20260507051521 | 7 | 0.0 | 0.0 | 0.00 | 0.05 | 0.00 | 88 | 1016.5 | |
| 20260507050521 | 8 | 0.0 | 0.0 | 0.00 | 0.05 | 0.00 | 85 | 1016.4 | |
| 20260507045522 | 8 | 0.0 | 0.0 | 0.00 | 0.10 | 0.08 | 85 | 1016.4 | |
| 20260507044516 | 8 | 0.0 | 0.0 | 0.00 | 0.15 | 0.08 | 85 | 1016.1 | |
| 20260507043516 | 8 | 0.0 | 0.0 | 0.00 | 0.23 | 0.08 | 83 | 1016.2 | |
| 20260507042521 | 8 | 0.0 | 0.0 | 0.00 | 0.25 | 0.08 | 85 | 1016.2 | |
| 20260507041521 | 8 | 0.0 | 0.0 | 0.00 | 0.25 | 0.08 | 86 | 1016.2 | |
| 20260507040542 | 8 | 0.0 | 0.0 | 0.00 | 0.25 | 0.08 | 85 | 1016.1 | |
| 20260507035521 | 8 | 0.0 | 0.0 | 0.00 | 0.25 | 0.08 | 84 | 1016.0 | |
| 20260507034521 | 8 | 0.0 | 0.0 | 0.00 | 0.28 | 0.08 | 83 | 1016.1 | |
| 20260507033517 | 8 | 0.0 | 0.0 | 0.00 | 0.28 | 0.08 | 80 | 1016.3 | |
| 20260507032516 | 8 | 0.0 | 0.0 | 0.00 | 0.30 | 0.08 | 80 | 1016.4 | |
| 20260507031541 | 9 | 0.0 | 0.0 | 0.00 | 0.38 | 0.08 | 82 | 1016.3 | |
| 20260507030521 | 9 | 0.0 | 0.0 | 0.00 | 0.41 | 0.08 | 81 | 1015.8 | |
| 20260507025542 | 9 | 0.0 | 0.0 | 0.00 | 0.48 | 0.08 | 77 | 1015.8 | |
| 20260507024521 | 9 | 0.0 | 0.0 | 0.00 | 0.53 | 0.08 | 76 | 1016.1 | |
| 20260507023521 | 10 | 0.0 | 0.0 | 0.00 | 0.56 | 0.08 | 74 | 1016.2 | |
| 20260507022516 | 10 | 0.0 | 0.0 | 0.00 | 0.58 | 0.08 | 74 | 1016.1 | |
| 20260507021521 | 10 | 0.0 | 0.0 | 0.00 | 0.58 | 0.08 | 70 | 1015.9 | |
| 20260507020521 | 10 | 0.0 | 0.0 | 0.00 | 0.74 | 0.08 | 72 | 1015.9 | |
| 20260507015522 | 11 | 0.0 | 0.0 | 0.00 | 0.76 | 0.08 | 73 | 1015.8 | |
| 20260507014521 | 11 | 0.0 | 0.0 | 0.00 | 0.81 | 0.08 | 73 | 1015.5 | |
| 20260507013521 | 11 | 0.0 | 0.0 | 0.00 | 0.84 | 0.08 | 72 | 1015.5 | |
| 20260507012521 | 12 | 0.0 | 0.0 | 0.00 | 0.84 | 0.08 | 66 | 1015.5 | |
| 20260507011516 | 12 | 329 | 0.0 | 3.2 | 0.00 | 0.86 | 0.08 | 66 | 1015.5 |
| 20260507010521 | 13 | 329 | 0.0 | 3.2 | 0.00 | 0.94 | 0.08 | 65 | 1015.3 |
| 20260507005521 | 13 | 330 | 0.0 | 3.2 | 0.00 | 0.99 | 0.08 | 62 | 1015.1 |
| 20260507004601 | 13 | 0.0 | 0.0 | 0.00 | 1.17 | 0.08 | 61 | 1014.9 | |
| 20260507003521 | 14 | 330 | 0.0 | 3.2 | 0.00 | 1.17 | 0.08 | 61 | 1014.8 |
| 20260507002541 | 15 | 330 | 1.6 | 6.4 | 0.00 | 1.17 | 0.08 | 57 | 1014.8 |
| 20260507001516 | 15 | 329 | 1.6 | 6.4 | 0.00 | 1.17 | 0.08 | 57 | 1014.8 |
| 20260507000516 | 15 | 334 | 0.0 | 4.8 | 0.00 | 1.27 | 0.08 | 57 | 1014.7 |
| 20260506235521 | 15 | 334 | 3.2 | 8.0 | 0.00 | 1.27 | 0.08 | 56 | 1014.6 |
| 20260506234521 | 15 | 335 | 3.2 | 11.3 | 0.00 | 1.27 | 0.08 | 53 | 1014.4 |
| 20260506233521 | 16 | 334 | 3.2 | 9.7 | 0.00 | 1.27 | 0.08 | 51 | 1014.4 |
| 20260506232601 | 16 | 336 | 1.6 | 9.7 | 0.00 | 1.27 | 0.08 | 54 | 1014.3 |
| 20260506231522 | 16 | 350 | 3.2 | 8.0 | 0.00 | 1.27 | 0.08 | 56 | 1014.3 |
| 20260506230537 | 15 | 347 | 3.2 | 6.4 | 0.00 | 1.27 | 0.08 | 56 | 1014.4 |
| 20260506225541 | 16 | 345 | 4.8 | 12.9 | 0.00 | 1.27 | 0.08 | 55 | 1014.4 |
| 20260506224521 | 16 | 338 | 1.6 | 6.4 | 0.00 | 1.27 | 0.08 | 56 | 1014.5 |
| 20260506223521 | 16 | 327 | 1.6 | 8.0 | 0.00 | 1.27 | 0.08 | 51 | 1014.8 |
| 20260506222521 | 16 | 308 | 3.2 | 8.0 | 0.00 | 1.27 | 0.08 | 54 | 1014.8 |
| 20260506221602 | 15 | 315 | 0.0 | 3.2 | 0.00 | 1.27 | 0.08 | 60 | 1014.7 |
| 20260506220541 | 16 | 330 | 0.0 | 6.4 | 0.00 | 1.27 | 0.08 | 56 | 1015.0 |
| 20260506215516 | 15 | 341 | 0.0 | 1.6 | 0.00 | 1.30 | 0.08 | 63 | 1015.1 |
| 20260506214521 | 15 | 341 | 0.0 | 6.4 | 0.00 | 1.30 | 0.08 | 64 | 1015.1 |
| 20260506213521 | 15 | 340 | 1.6 | 8.0 | 0.00 | 1.30 | 0.08 | 59 | 1015.0 |
| 20260506212521 | 16 | 325 | 3.2 | 6.4 | 0.00 | 1.30 | 0.08 | 60 | 1015.1 |
| 20260506211521 | 16 | 330 | 3.2 | 8.0 | 0.00 | 1.30 | 0.08 | 56 | 1015.0 |
| 20260506210521 | 16 | 298 | 1.6 | 8.0 | 0.00 | 1.30 | 0.08 | 55 | 1015.0 |
| 20260506205536 | 16 | 305 | 1.6 | 6.4 | 0.00 | 1.30 | 0.08 | 53 | 1015.0 |
| 20260506204541 | 16 | 344 | 1.6 | 8.0 | 0.00 | 1.32 | 0.08 | 53 | 1015.1 |
| 20260506203521 | 16 | 330 | 3.2 | 6.4 | 0.00 | 1.32 | 0.08 | 56 | 1015.2 |
| 20260506202521 | 16 | 334 | 1.6 | 6.4 | 0.00 | 1.32 | 0.08 | 53 | 1015.3 |
| 20260506201521 | 16 | 349 | 3.2 | 8.0 | 0.00 | 1.35 | 0.08 | 50 | 1015.6 |
| 20260506200521 | 16 | 272 | 3.2 | 11.3 | 0.00 | 1.35 | 0.08 | 52 | 1015.6 |
| 20260506195521 | 16 | 314 | 1.6 | 6.4 | 0.00 | 1.35 | 0.08 | 59 | 1015.4 |
| 20260506194516 | 16 | 331 | 1.6 | 8.0 | 0.00 | 1.35 | 0.08 | 56 | 1015.3 |
| 20260506193521 | 16 | 299 | 3.2 | 8.0 | 0.00 | 1.35 | 0.08 | 60 | 1015.2 |
| 20260506192541 | 17 | 327 | 3.2 | 8.0 | 0.00 | 1.35 | 0.08 | 55 | 1015.3 |
| 20260506191521 | 16 | 328 | 1.6 | 8.0 | 0.00 | 1.35 | 0.08 | 62 | 1015.2 |
| 20260506190521 | 16 | 350 | 0.0 | 8.0 | 0.00 | 1.37 | 0.08 | 54 | 1015.2 |
| 20260506185541 | 16 | 272 | 1.6 | 9.7 | 0.00 | 1.40 | 0.08 | 63 | 1015.1 |
| 20260506184516 | 16 | 322 | 0.0 | 11.3 | 0.00 | 1.52 | 0.08 | 62 | 1015.2 |
| 20260506183516 | 16 | 331 | 1.6 | 9.7 | 0.00 | 1.52 | 0.08 | 64 | 1015.3 |
| 20260506182521 | 15 | 310 | 0.0 | 8.0 | 0.00 | 1.52 | 0.08 | 62 | 1015.5 |
| 20260506181521 | 15 | 280 | 1.6 | 8.0 | 0.00 | 1.52 | 0.08 | 62 | 1015.5 |
| 20260506180521 | 14 | 303 | 3.2 | 11.3 | 0.00 | 1.52 | 0.08 | 60 | 1015.7 |
| 20260506175521 | 15 | 319 | 1.6 | 8.0 | 0.00 | 1.52 | 0.08 | 64 | 1015.8 |
| 20260506174521 | 15 | 324 | 1.6 | 11.3 | 0.00 | 1.52 | 0.08 | 67 | 1015.8 |
| 20260506173516 | 14 | 322 | 0.0 | 6.4 | 0.00 | 1.52 | 0.08 | 64 | 1015.7 |
| 20260506172521 | 14 | 321 | 1.6 | 9.7 | 0.00 | 1.52 | 0.08 | 69 | 1015.6 |
| 20260506171521 | 14 | 323 | 1.6 | 9.7 | 0.00 | 1.52 | 0.08 | 66 | 1015.8 |
| 20260506170521 | 14 | 293 | 1.6 | 9.7 | 0.00 | 1.52 | 0.08 | 67 | 1015.9 |
| 20260506165521 | 13 | 331 | 0.0 | 3.2 | 0.00 | 1.52 | 0.08 | 69 | 1015.7 |
| 20260506164521 | 14 | 306 | 1.6 | 8.0 | 0.00 | 1.52 | 0.08 | 68 | 1015.7 |
| 20260506163521 | 13 | 272 | 0.0 | 6.4 | 0.00 | 1.52 | 0.08 | 67 | 1015.9 |
| 20260506162516 | 13 | 273 | 1.6 | 11.3 | 0.00 | 1.52 | 0.08 | 71 | 1015.7 |
| 20260506161521 | 13 | 311 | 0.0 | 4.8 | 0.00 | 1.52 | 0.08 | 69 | 1015.6 |
| 20260506160541 | 13 | 311 | 0.0 | 6.4 | 0.00 | 1.52 | 0.08 | 70 | 1015.6 |
| 20260506155521 | 13 | 311 | 0.0 | 6.4 | 0.00 | 1.52 | 0.08 | 76 | 1015.2 |
| 20260506154521 | 13 | 312 | 0.0 | 6.4 | 0.00 | 1.52 | 0.08 | 75 | 1015.3 |
| 20260506153521 | 12 | 312 | 0.0 | 6.4 | 0.00 | 1.52 | 0.08 | 77 | 1015.2 |
| 20260506152516 | 12 | 312 | 0.0 | 6.4 | 0.00 | 1.52 | 0.08 | 80 | 1015.2 |
| 20260506151516 | 11 | 317 | 0.0 | 4.8 | 0.00 | 1.52 | 0.08 | 84 | 1015.1 |
| 20260506150521 | 11 | 316 | 0.0 | 4.8 | 0.00 | 1.52 | 0.08 | 86 | 1015.6 |
| 20260506145521 | 10 | 315 | 0.0 | 4.8 | 0.00 | 1.52 | 0.08 | 87 | 1015.8 |
| 20260506144521 | 10 | 327 | 0.0 | 3.2 | 0.00 | 1.52 | 0.08 | 87 | 1015.5 |
| 20260506143519 | 10 | 327 | 0.0 | 3.2 | 0.00 | 1.52 | 0.08 | 88 | 1015.3 |
| 20260506142521 | 10 | 327 | 0.0 | 3.2 | 0.00 | 1.52 | 0.08 | 88 | 1015.1 |
| 20260506141536 | 10 | 327 | 0.0 | 3.2 | 0.00 | 1.52 | 0.08 | 89 | 1014.6 |
| 20260506140521 | 10 | 327 | 1.6 | 8.0 | 0.00 | 1.55 | 0.08 | 89 | 1014.9 |
| 20260506135521 | 10 | 342 | 1.6 | 11.3 | 0.00 | 1.57 | 0.08 | 88 | 1014.8 |
| 20260506134521 | 10 | 311 | 1.6 | 6.4 | 0.00 | 1.68 | 0.08 | 89 | 1014.4 |
| 20260506133521 | 10 | 311 | 1.6 | 6.4 | 0.00 | 1.80 | 0.08 | 89 | 1014.4 |
| 20260506132521 | 10 | 312 | 0.0 | 3.2 | 0.00 | 1.98 | 0.08 | 91 | 1014.4 |
| 20260506131521 | 9 | 312 | 0.0 | 3.2 | 0.00 | 2.11 | 0.08 | 90 | 1014.3 |
| 20260506130516 | 9 | 312 | 0.0 | 3.2 | 0.00 | 2.46 | 0.08 | 90 | 1013.9 |
| 20260506125601 | 9 | 312 | 0.0 | 6.4 | 0.00 | 2.82 | 0.08 | 91 | 1013.8 |
| 20260506124542 | 8 | 312 | 0.0 | 4.8 | 0.00 | 3.12 | 0.08 | 91 | 1013.6 |
| 20260506123521 | 8 | 311 | 0.0 | 4.8 | 0.00 | 3.12 | 0.08 | 92 | 1013.7 |
| 20260506122521 | 8 | 311 | 0.0 | 8.0 | 0.00 | 3.12 | 0.08 | 92 | 1014.0 |
| 20260506121521 | 8 | 260 | 1.6 | 4.8 | 0.00 | 3.12 | 0.08 | 92 | 1014.0 |
| 20260506120516 | 8 | 260 | 0.0 | 3.2 | 0.00 | 3.12 | 0.08 | 92 | 1013.8 |
| 20260506115516 | 8 | 260 | 0.0 | 6.4 | 0.00 | 3.12 | 0.08 | 92 | 1013.2 |
| 20260506114702 | 8 | 259 | 0.0 | 1.6 | 0.00 | 3.12 | 0.08 | 93 | 1013.3 |
| 20260506113521 | 8 | 0.0 | 3.2 | 0.00 | 3.12 | 0.08 | 93 | 1013.0 | |
| 20260506112521 | 8 | 0.0 | 0.0 | 0.00 | 3.12 | 0.08 | 93 | 1012.8 | |
| 20260506111521 | 8 | 333 | 0.0 | 6.4 | 0.00 | 3.12 | 0.08 | 93 | 1012.5 |
| 20260506110521 | 8 | 0.0 | 0.0 | 0.00 | 3.12 | 0.08 | 93 | 1012.0 | |
| 20260506105516 | 8 | 338 | 0.0 | 3.2 | 0.00 | 3.12 | 0.08 | 93 | 1012.2 |
| 20260506104541 | 8 | 0.0 | 0.0 | 0.00 | 3.12 | 0.08 | 93 | 1012.6 | |
| 20260506103521 | 8 | 338 | 0.0 | 3.2 | 0.00 | 3.12 | 0.08 | 93 | 1012.9 |
| 20260506102521 | 8 | 338 | 0.0 | 3.2 | 0.00 | 3.12 | 0.08 | 93 | 1012.6 |
| 20260506101521 | 8 | 337 | 0.0 | 4.8 | 0.00 | 3.12 | 0.08 | 93 | 1012.9 |
| 20260506100521 | 8 | 0.0 | 0.0 | 0.00 | 3.12 | 0.08 | 93 | 1012.8 | |
| 20260506095521 | 8 | 0.0 | 0.0 | 0.00 | 3.12 | 0.08 | 93 | 1012.7 | |
| 20260506094556 | 8 | 340 | 0.0 | 3.2 | 0.00 | 3.12 | 0.08 | 93 | 1011.9 |
| 20260506093521 | 8 | 340 | 0.0 | 3.2 | 0.00 | 3.12 | 0.08 | 93 | 1011.7 |
| 20260506092521 | 8 | 0.0 | 0.0 | 0.00 | 3.12 | 0.08 | 93 | 1011.8 | |
| 20260506091521 | 8 | 0.0 | 0.0 | 0.00 | 3.12 | 0.08 | 93 | 1011.9 | |
| 20260506090541 | 8 | 0.0 | 3.2 | 0.00 | 3.12 | 0.08 | 93 | 1011.9 | |
| 20260506085521 | 8 | 340 | 0.0 | 3.2 | 0.00 | 3.12 | 0.08 | 93 | 1011.8 |
| 20260506084521 | 8 | 0.0 | 3.2 | 0.00 | 3.12 | 0.08 | 93 | 1011.6 | |
| 20260506083516 | 7 | 0.0 | 4.8 | 0.00 | 3.12 | 0.08 | 93 | 1012.0 | |
| 20260506082521 | 7 | 340 | 0.0 | 3.2 | 0.00 | 3.12 | 0.08 | 93 | 1011.6 |
| 20260506081521 | 7 | 0.0 | 1.6 | 0.00 | 3.12 | 0.08 | 93 | 1011.6 | |
| 20260506080521 | 7 | 0.0 | 3.2 | 0.00 | 3.12 | 0.08 | 93 | 1012.4 | |
| 20260506073516 | 7 | 0.0 | 1.6 | 0.03 | 3.12 | 0.08 | 93 | 1010.9 | |
| 20260506072536 | 7 | 0.0 | 4.8 | 0.03 | 3.12 | 0.08 | 92 | 1011.0 | |
| 20260506071521 | 7 | 341 | 1.6 | 4.8 | 0.05 | 3.12 | 0.08 | 92 | 1011.2 |
| 20260506070521 | 7 | 341 | 0.0 | 3.2 | 0.05 | 3.12 | 0.08 | 92 | 1011.4 |